Location: İstanbul
(41.0082°N, 28.9784°E)
Time: 20:15:53
(UTC+03:00)

ITUPSAT 1 - Pass Details

Date: 28 April 2024
Orbit: 694 x 707 km, 98.5° (Epoch: 29 May)

Event Time Altitude Azimuth Distance (km) Brightness Sun altitude
Rises 21:49:35 0° 34° (NE) 3,080 ? -19.0°
Reaches altitude 10° 21:53:00 10° 61° (ENE) 2,156 ? -19.4°
Enters shadow 21:53:22 11° 65° (ENE) 2,089 ? -19.5°
